Vertical_Velocity
7 4 3 4 -2 -4 3 8 19 -3 -3 4 4 7 -0 7 12 4 -3 -2 7 9
3 -2 -0 -6 -3 4 7 2 1 -2 -1 20 -2 10 15 7 6 0 7 5 4 -1
2 9 3 9 2 4 2 -0 -2 4 1 8 9 5 5 1 1 0 -2 1 1 -3
4 -4 2 2 5 -0 -0 3 6 7 4 3 3 -1 -2 -2 -3 -1 -2 -4 -6 -6
3 8 2 -0 1 2 1 2 5 2 -1 -1 -3 -6 -3 -5 -4 -4 -6 -7 -6 -3
-4 -1 -5 0 -3 -3 -5 -4 -4 -2 -3 -7 -5 -6 -5 -5 -1 -4 -1 -1 -2 2
1 -1 0 -1 -2 0 -4 -1 -3 -8 -2 -2 -0 -3 -5 -3 1 -0 -1 -1 -1 1
2 2 -4 1 1 1 -1 -1 -3 2 1 -9 -0 -3 0 3 1 2 1 0 -1 -1
0 1 -1 3 -2 2 2 -0 -1 1 -2 2 -3 -3 -3 -3 -2 -4 -2 -2 -1 2
-1 -0 -2 -0 4 -3 1 -2 5 -1 -1 -1 -1 1 1 -0 1 2 1 2 1 -0
6 3 3 -1 -2 -4 -1 -3 1 -3 -2 -4 -3 -3 -4 -2 -1 -1 -1 0 4 2
2 -0 1 2 1 1 5 1 -4 -4 -4 -6 -3 -5 -2 -3 -0 -2 -4 0 2 3
-0 2 2 3 -0 1 -2 -3 -3 -5 -3 -2 -1 -4 -2 -3 -1 -1 1 0 2 3
-1 -3 -3 -2 -6 -4 -2 -2 1 -1 -2 -3 -3 -2 0 0 -3 -1 0 2 1 3
Height
5769 5770 5772 5774 5777 5780 5782 5786 5787 5786 5786 5787 5788 5790 5790 5794 5797 5797 5797 5798 5800 5800
5759 5762 5764 5763 5765 5769 5771 5774 5776 5777 5779 5780 5778 5780 5782 5784 5787 5787 5788 5789 5790 5788
5749 5752 5755 5754 5759 5759 5762 5762 5765 5767 5769 5770 5770 5771 5771 5772 5775 5777 5778 5779 5778 5777
5738 5741 5745 5747 5749 5750 5754 5756 5756 5757 5757 5758 5759 5760 5761 5762 5764 5767 5768 5769 5767 5767
5726 5732 5735 5737 5739 5741 5744 5747 5748 5747 5747 5746 5748 5749 5751 5753 5753 5754 5755 5755 5755 5754
5718 5722 5726 5728 5730 5732 5734 5735 5737 5737 5737 5737 5737 5738 5740 5741 5742 5743 5744 5744 5744 5743
5711 5714 5717 5719 5721 5724 5726 5725 5726 5728 5728 5728 5727 5728 5729 5730 5730 5730 5730 5731 5731 5731
5706 5708 5709 5711 5712 5714 5715 5715 5716 5716 5717 5718 5718 5717 5717 5717 5717 5717 5716 5717 5717 5718
5698 5699 5701 5703 5704 5704 5705 5705 5705 5705 5706 5707 5705 5705 5704 5705 5704 5703 5702 5702 5703 5704
5691 5693 5694 5695 5695 5694 5694 5694 5694 5694 5694 5693 5692 5691 5691 5691 5690 5689 5688 5688 5688 5688
5682 5683 5683 5683 5683 5684 5684 5683 5681 5680 5680 5679 5678 5676 5675 5675 5674 5673 5672 5672 5673 5675
5672 5672 5671 5670 5669 5669 5669 5670 5669 5668 5665 5663 5661 5660 5660 5659 5659 5659 5658 5659 5661 5663
5663 5662 5662 5661 5661 5660 5659 5657 5655 5653 5652 5650 5649 5648 5646 5646 5647 5647 5647 5648 5650 5652
5654 5654 5653 5651 5649 5647 5645 5644 5643 5643 5641 5640 5638 5637 5637 5636 5636 5636 5636 5637 5640 5641